Flag for Germany Weather past 2 weeks in Goch, North Rhine-Westphalia, Germany

Now
39 °F

Passing clouds.


Feels Like: 33 °F
Forecast: 33 / 38 °F
Wind: 9 mph from South

Location: Niederrhein

Current Time: Jan 29, 2015 at 7:52:06 PM

Latest Report: Jan 29, 2015 at 7:20 PM


Visibility: N/A

Pressure: 28.80 "Hg

Humidity: 87%

Dew point: 36 °F

Location of GochLocation

Historic Weather in Goch — Graph

°F

Goch temperature yesterday

Maximum temperature yesterday: 45 °F (at 12:20 PM)
Minimum temperature yesterday: 37 °F (at 7:50 PM)
Average temperature yesterday: 41 °F

Past Weeks' High & Low Weather Summary

 TemperatureHumidityPressure
High52 °F (Jan 15, 2:50 PM)100% (Jan 15, 4:50 AM)30.42 "Hg (Jan 15, 4:50 AM)
Low27 °F (Jan 21, 5:20 AM)65% (Jan 21, 1:20 PM)28.85 "Hg (Jan 29, 5:50 PM)
Average37 °F93%29.92 "Hg
* Reported Jan 14 6:20 PM — Jan 29 6:20 PM, Goch, Weather by CustomWeather, © 2014

Note: Actual official high and low records may vary slightly from our data, if they occured in-between our weather recording intervals... More about our weather records

Advertising

Goch weather history for previous 24 hours

 ConditionsComfort  
Time TempWeatherWind HumidityBarometerVisibility
6:20 PM
Jan 29
39 °FPassing clouds.13 mph87%28.85 "HgN/A
5:50 PM39 °FScattered clouds.12 mph93%28.85 "HgN/A
5:20 PM41 °FScattered clouds.13 mph87%28.88 "HgN/A
4:50 PM41 °FScattered showers. Scattered clouds.12 mph81%28.88 "HgN/A
4:20 PM41 °FScattered showers. Scattered clouds.14 mph87%28.91 "HgN/A
3:50 PM41 °FScattered showers. Scattered clouds.15 mph87%28.94 "HgN/A
3:20 PM41 °FScattered clouds.14 mph87%28.97 "HgN/A
2:50 PM41 °FScattered clouds.16 mph87%29.00 "HgN/A
2:20 PM41 °FPassing clouds.17 mph87%29.03 "HgN/A
1:50 PM41 °FScattered clouds.17 mph81%29.03 "HgN/A
1:20 PM41 °FPartly sunny.20 mph76%29.06 "HgN/A
12:50 PM41 °FPartly sunny.14 mph76%29.09 "HgN/A
12:20 PM39 °FScattered clouds.14 mph81%29.12 "HgN/A
11:50 AM39 °FScattered clouds.16 mph87%29.15 "HgN/A
11:20 AM39 °FScattered clouds.17 mph87%29.15 "HgN/A
10:50 AM39 °FBroken clouds.16 mph87%29.18 "HgN/A
10:20 AM37 °FPartly sunny.15 mph93%29.18 "HgN/A
9:50 AM37 °FPartly sunny.15 mph93%29.21 "HgN/A
9:20 AM37 °FScattered clouds.16 mph93%29.21 "HgN/A
8:50 AM36 °FLight rain. Passing clouds.12 mph100%29.24 "HgN/A
8:20 AM36 °FPassing clouds.13 mph93%29.24 "HgN/A
7:50 AM36 °FPassing clouds.16 mph93%29.24 "HgN/A
7:20 AM36 °FPassing clouds.15 mph93%29.27 "HgN/A
6:50 AM36 °FClear.15 mph93%29.27 "Hg10 mi
6:20 AM36 °FClear.16 mph87%29.30 "Hg10 mi
5:50 AM36 °FClear.15 mph87%29.30 "Hg10 mi
5:20 AM34 °FPassing clouds.14 mph93%29.33 "HgN/A
4:50 AM36 °FPassing clouds.15 mph87%29.33 "HgN/A
11:20 PM
Jan 28
37 °FClear.16 mph87%29.45 "Hg10 mi
10:50 PM39 °FClear.16 mph81%29.45 "Hg10 mi
10:20 PM39 °FClear.18 mph81%29.45 "Hg10 mi
9:50 PM39 °FClear.15 mph87%29.45 "Hg10 mi
9:20 PM39 °FClear.15 mph87%29.45 "Hg10 mi
8:50 PM39 °FPassing clouds.15 mph93%29.45 "HgN/A
8:20 PM37 °FClear.13 mph100%29.45 "Hg10 mi
7:50 PM37 °FClear.15 mph100%29.45 "Hg10 mi
7:20 PM39 °FPassing clouds.14 mph100%29.45 "HgN/A
Weather by CustomWeather, © 2014

See weather overviewHow to use our weather pages